Year,Month,Day,Hour,Minute,Value (Times are PST for temperature in C)
2009,03,31,13,12,7.40
2009,03,31,13,13,7.50
2009,03,31,13,14,7.50
2009,03,31,13,15,7.50
2009,03,31,13,16,7.50
2009,03,31,13,17,7.60
2009,03,31,13,18,7.60
2009,03,31,13,19,7.70
2009,03,31,13,20,7.80
2009,03,31,13,21,7.80
2009,03,31,13,22,7.80
2009,03,31,13,23,7.90
2009,03,31,13,24,7.90
2009,03,31,13,25,8.00
2009,03,31,13,26,8.10
2009,03,31,13,27,8.20
2009,03,31,13,28,8.20
2009,03,31,13,29,8.20
2009,03,31,13,30,8.20
2009,03,31,13,31,8.10
2009,03,31,13,32,8.00
2009,03,31,13,33,7.90
2009,03,31,13,34,7.80
2009,03,31,13,35,7.80
2009,03,31,13,36,7.70
2009,03,31,13,37,7.60
2009,03,31,13,38,7.60
2009,03,31,13,39,7.60
2009,03,31,13,40,7.50
2009,03,31,13,41,7.50
2009,03,31,13,42,7.50
2009,03,31,13,43,7.50
2009,03,31,13,44,7.50
2009,03,31,13,45,7.60
2009,03,31,13,46,7.60
2009,03,31,13,47,7.60
2009,03,31,13,48,7.60
2009,03,31,13,49,7.50
2009,03,31,13,50,7.50
2009,03,31,13,51,7.50
2009,03,31,13,52,7.60
2009,03,31,13,53,7.60
2009,03,31,13,54,7.60
2009,03,31,13,55,7.60
2009,03,31,13,56,7.70
2009,03,31,13,57,7.70
2009,03,31,13,58,7.70
2009,03,31,13,59,7.60
2009,03,31,14,00,7.60
2009,03,31,14,01,7.50
2009,03,31,14,02,7.50
2009,03,31,14,03,7.50
2009,03,31,14,04,7.50
2009,03,31,14,05,7.50
2009,03,31,14,06,7.50
2009,03,31,14,07,7.40
2009,03,31,14,08,7.40
2009,03,31,14,09,7.30
2009,03,31,14,10,7.30
2009,03,31,14,11,7.40
2009,03,31,14,12,7.40
2009,03,31,14,13,7.50
2009,03,31,14,14,7.60
2009,03,31,14,15,7.60
2009,03,31,14,16,7.60
2009,03,31,14,17,7.60
2009,03,31,14,18,7.70
2009,03,31,14,19,7.70
2009,03,31,14,20,7.70
2009,03,31,14,21,7.80
2009,03,31,14,22,7.80
2009,03,31,14,23,7.80
2009,03,31,14,24,7.90
2009,03,31,14,25,8.00
2009,03,31,14,26,8.10
2009,03,31,14,27,8.20
2009,03,31,14,28,8.20
2009,03,31,14,29,8.30
2009,03,31,14,30,8.40
2009,03,31,14,31,8.30
2009,03,31,14,32,8.20
2009,03,31,14,33,8.20
2009,03,31,14,34,8.20
2009,03,31,14,35,8.10
2009,03,31,14,36,8.00
2009,03,31,14,37,8.00
2009,03,31,14,38,7.90
2009,03,31,14,39,8.00
2009,03,31,14,40,8.00
2009,03,31,14,41,8.10
2009,03,31,14,42,8.10
2009,03,31,14,43,8.10
2009,03,31,14,44,8.10
2009,03,31,14,45,8.10
2009,03,31,14,46,8.20
2009,03,31,14,47,8.40
2009,03,31,14,48,8.50
2009,03,31,14,49,8.50
2009,03,31,14,50,8.60
2009,03,31,14,51,8.60
2009,03,31,14,52,8.60
2009,03,31,14,53,8.60
2009,03,31,14,54,8.60
2009,03,31,14,55,8.60
2009,03,31,14,56,8.60
2009,03,31,14,57,8.50
2009,03,31,14,58,8.40
2009,03,31,14,59,8.40
2009,03,31,15,00,8.40
2009,03,31,15,01,8.50
2009,03,31,15,02,8.60
2009,03,31,15,03,8.70
2009,03,31,15,04,8.70
2009,03,31,15,05,8.70
2009,03,31,15,06,8.70
2009,03,31,15,07,8.60
2009,03,31,15,08,8.60
2009,03,31,15,09,8.60
2009,03,31,15,10,8.60
2009,03,31,15,11,8.60
2009,03,31,15,12,8.50
2009,03,31,15,13,8.50
2009,03,31,15,14,8.40
2009,03,31,15,15,8.30
2009,03,31,15,16,8.20
2009,03,31,15,17,8.10
2009,03,31,15,18,8.00
2009,03,31,15,19,7.90
2009,03,31,15,20,7.90
2009,03,31,15,21,7.90
2009,03,31,15,22,7.90
2009,03,31,15,23,7.80
2009,03,31,15,24,7.80
2009,03,31,15,25,7.80
2009,03,31,15,26,7.80
2009,03,31,15,27,7.80
2009,03,31,15,28,7.80
2009,03,31,15,29,7.80
2009,03,31,15,30,7.80
2009,03,31,15,31,7.80
2009,03,31,15,32,7.70
2009,03,31,15,33,7.70
2009,03,31,15,34,7.80
2009,03,31,15,35,7.80
2009,03,31,15,36,7.80
2009,03,31,15,37,7.80
2009,03,31,15,38,7.80
2009,03,31,15,39,7.80
2009,03,31,15,40,7.80
2009,03,31,15,41,7.80
2009,03,31,15,42,7.90
2009,03,31,15,43,8.00
2009,03,31,15,44,8.00
2009,03,31,15,45,8.10
2009,03,31,15,46,8.10
2009,03,31,15,47,8.20
2009,03,31,15,48,8.20
2009,03,31,15,49,8.20
2009,03,31,15,50,8.10
2009,03,31,15,51,8.00
2009,03,31,15,52,8.00
2009,03,31,15,53,7.90
2009,03,31,15,54,7.80
2009,03,31,15,55,7.70
2009,03,31,15,56,7.60
2009,03,31,15,57,7.50
2009,03,31,15,58,7.40
2009,03,31,15,59,7.30
2009,03,31,16,00,7.30
2009,03,31,16,01,7.30
2009,03,31,16,02,7.30
2009,03,31,16,03,7.20
2009,03,31,16,04,7.20
2009,03,31,16,05,7.20
2009,03,31,16,06,7.20
2009,03,31,16,07,7.30
2009,03,31,16,08,7.20
2009,03,31,16,09,7.20
2009,03,31,16,10,7.30
2009,03,31,16,11,7.30
2009,03,31,16,12,7.30
2009,03,31,16,13,7.30
2009,03,31,16,14,7.30
2009,03,31,16,15,7.30
2009,03,31,16,16,7.30
2009,03,31,16,17,7.30
2009,03,31,16,18,7.30
2009,03,31,16,19,7.30
2009,03,31,16,20,7.30
2009,03,31,16,21,7.30
2009,03,31,16,22,7.30
2009,03,31,16,23,7.20
2009,03,31,16,24,7.20
2009,03,31,16,25,7.20
2009,03,31,16,26,7.10
2009,03,31,16,27,7.10
2009,03,31,16,28,7.10
2009,03,31,16,29,7.00
2009,03,31,16,30,7.00
2009,03,31,16,31,7.00
2009,03,31,16,32,6.90
2009,03,31,16,33,6.90
2009,03,31,16,34,6.90
2009,03,31,16,35,6.90
2009,03,31,16,36,6.90
2009,03,31,16,37,6.90
2009,03,31,16,38,7.00
2009,03,31,16,39,7.00
2009,03,31,16,40,7.00
2009,03,31,16,41,7.00
2009,03,31,16,42,6.90
2009,03,31,16,43,6.90
2009,03,31,16,44,6.90
2009,03,31,16,45,6.90
2009,03,31,16,46,6.90
2009,03,31,16,47,6.90
2009,03,31,16,48,6.90
2009,03,31,16,49,6.90
2009,03,31,16,50,6.90
2009,03,31,16,51,6.90
2009,03,31,16,52,6.80
2009,03,31,16,53,6.80
2009,03,31,16,54,6.70
2009,03,31,16,55,6.60
2009,03,31,16,56,6.50
2009,03,31,16,57,6.40
2009,03,31,16,58,6.30
2009,03,31,16,59,6.20
2009,03,31,17,00,6.20
2009,03,31,17,01,6.10
2009,03,31,17,02,6.00
2009,03,31,17,03,6.00
2009,03,31,17,04,5.90
2009,03,31,17,05,5.80
2009,03,31,17,06,5.80
2009,03,31,17,07,5.70
2009,03,31,17,08,5.70
2009,03,31,17,09,5.60
2009,03,31,17,10,5.60
2009,03,31,17,11,5.50
2009,03,31,17,12,5.50
2009,03,31,17,13,5.40
2009,03,31,17,14,5.40
2009,03,31,17,15,5.40
2009,03,31,17,16,5.40
2009,03,31,17,17,5.40
2009,03,31,17,18,5.40
2009,03,31,17,19,5.40
2009,03,31,17,20,5.40
2009,03,31,17,21,5.40
2009,03,31,17,22,5.40
2009,03,31,17,23,5.40
